| time (UTC) | temp F | wind direction | speed knots | gust knots | rain 1hr in | rain 24hr in | rain mn in | humidity % | barometer mb |
| 20260506195404 | 86 | 162 | 3.5 | 8.7 | 0.00 | 0.00 | 0.00 | 74 | 1009.1 |
| 20260506194904 | 86 | 196 | 3.5 | 10.4 | 0.00 | 0.00 | 0.00 | 74 | 1009.1 |
| 20260506194404 | 86 | 158 | 4.3 | 11.3 | 0.00 | 0.00 | 0.00 | 74 | 1009.1 |
| 20260506193904 | 86 | 158 | 4.3 | 11.3 | 0.00 | 0.00 | 0.00 | 75 | 1009.2 |
| 20260506193403 | 86 | 164 | 1.7 | 10.4 | 0.00 | 0.00 | 0.00 | 74 | 1009.2 |
| 20260506192904 | 86 | 175 | 4.3 | 10.4 | 0.00 | 0.00 | 0.00 | 74 | 1009.2 |
| 20260506191403 | 86 | 181 | 5.2 | 8.7 | 0.00 | 0.00 | 0.00 | 74 | 1009.4 |
| 20260506190904 | 86 | 181 | 1.7 | 8.7 | 0.00 | 0.00 | 0.00 | 74 | 1009.4 |
| 20260506190404 | 86 | 181 | 5.2 | 7.0 | 0.00 | 0.00 | 0.00 | 74 | 1009.6 |
| 20260506185904 | 86 | 177 | 3.5 | 7.8 | 0.00 | 0.00 | 0.00 | 74 | 1009.5 |
| 20260506185405 | 86 | 141 | 3.5 | 7.8 | 0.00 | 0.00 | 0.00 | 74 | 1009.6 |
| 20260506184904 | 86 | 166 | 2.6 | 7.8 | 0.00 | 0.00 | 0.00 | 74 | 1009.7 |
| 20260506184403 | 86 | 151 | 1.7 | 7.8 | 0.00 | 0.00 | 0.00 | 74 | 1009.8 |
| 20260506183404 | 86 | 187 | 1.7 | 7.8 | 0.00 | 0.00 | 0.00 | 75 | 1009.7 |
| 20260506182404 | 86 | 166 | 2.6 | 7.8 | 0.00 | 0.00 | 0.00 | 76 | 1009.9 |
| 20260506181904 | 86 | 182 | 1.7 | 7.8 | 0.00 | 0.00 | 0.00 | 75 | 1010.0 |
| 20260506181405 | 86 | 151 | 2.6 | 6.1 | 0.00 | 0.00 | 0.00 | 75 | 1010.1 |
| 20260506180905 | 86 | 201 | 1.7 | 6.1 | 0.00 | 0.00 | 0.00 | 76 | 1010.1 |
| 20260506180404 | 85 | 178 | 0.9 | 7.0 | 0.00 | 0.00 | 0.00 | 77 | 1010.1 |
| 20260506175904 | 85 | 171 | 1.7 | 7.8 | 0.00 | 0.00 | 0.00 | 78 | 1010.2 |
| 20260506175404 | 84 | 163 | 1.7 | 7.8 | 0.00 | 0.00 | 0.00 | 78 | 1010.2 |
| 20260506174903 | 84 | 162 | 2.6 | 7.8 | 0.00 | 0.00 | 0.00 | 79 | 1010.2 |
| 20260506174404 | 84 | 140 | 2.6 | 6.1 | 0.00 | 0.00 | 0.00 | 78 | 1010.3 |
| 20260506173904 | 84 | 197 | 2.6 | 7.8 | 0.00 | 0.00 | 0.00 | 78 | 1010.2 |
| 20260506173403 | 84 | 152 | 3.5 | 7.8 | 0.00 | 0.00 | 0.00 | 78 | 1010.3 |
| 20260506172904 | 84 | 193 | 1.7 | 7.8 | 0.00 | 0.00 | 0.00 | 79 | 1010.4 |
| 20260506172405 | 84 | 176 | 2.6 | 7.8 | 0.00 | 0.00 | 0.00 | 80 | 1010.4 |
| 20260506171905 | 83 | 185 | 2.6 | 7.8 | 0.00 | 0.00 | 0.00 | 81 | 1010.5 |
| 20260506171405 | 83 | 147 | 1.7 | 7.8 | 0.00 | 0.00 | 0.00 | 81 | 1010.6 |
| 20260506170404 | 82 | 185 | 3.5 | 7.0 | 0.00 | 0.00 | 0.00 | 84 | 1010.7 |
| 20260506165903 | 81 | 161 | 0.9 | 7.0 | 0.00 | 0.00 | 0.00 | 84 | 1010.8 |
| 20260506165404 | 81 | 146 | 1.7 | 7.0 | 0.00 | 0.00 | 0.00 | 85 | 1010.8 |
| 20260506164904 | 81 | 159 | 0.9 | 4.3 | 0.00 | 0.00 | 0.00 | 86 | 1010.7 |
| 20260506164405 | 81 | 195 | 0.9 | 4.3 | 0.00 | 0.00 | 0.00 | 86 | 1010.7 |
| 20260506163904 | 81 | 185 | 0.9 | 7.0 | 0.00 | 0.00 | 0.00 | 85 | 1010.7 |
| 20260506163404 | 80 | 184 | 2.6 | 7.0 | 0.00 | 0.00 | 0.00 | 85 | 1010.7 |
| 20260506162904 | 80 | 194 | 4.3 | 7.0 | 0.00 | 0.00 | 0.00 | 85 | 1010.6 |
| 20260506162404 | 80 | 175 | 1.7 | 4.3 | 0.00 | 0.00 | 0.00 | 85 | 1010.7 |
| 20260506161903 | 80 | 180 | 2.6 | 6.1 | 0.00 | 0.00 | 0.00 | 85 | 1010.6 |
| 20260506161404 | 80 | 171 | 2.6 | 7.8 | 0.00 | 0.00 | 0.00 | 85 | 1010.6 |
| 20260506160904 | 80 | 210 | 1.7 | 7.8 | 0.00 | 0.00 | 0.00 | 85 | 1010.6 |
| 20260506160404 | 80 | 155 | 3.5 | 7.8 | 0.00 | 0.00 | 0.00 | 85 | 1010.5 |
| 20260506155904 | 80 | 164 | 1.7 | 5.2 | 0.00 | 0.00 | 0.00 | 85 | 1010.6 |
| 20260506155405 | 80 | 163 | 1.7 | 5.2 | 0.00 | 0.00 | 0.00 | 86 | 1010.6 |
| 20260506154404 | 80 | 178 | 1.7 | 5.2 | 0.00 | 0.00 | 0.00 | 86 | 1010.3 |
| 20260506153904 | 80 | 169 | 1.7 | 6.1 | 0.00 | 0.00 | 0.00 | 85 | 1010.1 |
| 20260506153404 | 80 | 183 | 1.7 | 7.0 | 0.00 | 0.00 | 0.00 | 85 | 1010.1 |
| 20260506151904 | 80 | 165 | 1.7 | 5.2 | 0.00 | 0.00 | 0.00 | 85 | 1010.0 |
| 20260506151404 | 80 | 208 | 0.9 | 7.0 | 0.00 | 0.00 | 0.00 | 85 | 1009.9 |
| 20260506150404 | 80 | 142 | 1.7 | 7.0 | 0.00 | 0.00 | 0.00 | 85 | 1009.8 |
| 20260506145905 | 80 | 160 | 2.6 | 7.0 | 0.00 | 0.00 | 0.00 | 86 | 1009.6 |
| 20260506145405 | 80 | 166 | 1.7 | 5.2 | 0.00 | 0.00 | 0.00 | 86 | 1009.5 |
| 20260506144904 | 80 | 178 | 0.9 | 7.0 | 0.00 | 0.00 | 0.00 | 86 | 1009.4 |
| 20260506144405 | 80 | 173 | 3.5 | 7.0 | 0.00 | 0.00 | 0.00 | 86 | 1009.4 |
| 20260506143904 | 80 | 153 | 1.7 | 4.3 | 0.00 | 0.00 | 0.00 | 86 | 1009.4 |
| 20260506143404 | 79 | 153 | 1.7 | 4.3 | 0.00 | 0.00 | 0.00 | 86 | 1009.4 |
| 20260506142904 | 79 | 159 | 2.6 | 7.0 | 0.00 | 0.00 | 0.00 | 86 | 1009.6 |
| 20260506142404 | 79 | 164 | 1.7 | 7.8 | 0.00 | 0.00 | 0.00 | 87 | 1009.5 |
| 20260506141904 | 79 | 142 | 2.6 | 7.8 | 0.00 | 0.00 | 0.00 | 87 | 1009.5 |
| 20260506141404 | 79 | 165 | 2.6 | 5.2 | 0.00 | 0.00 | 0.00 | 88 | 1009.6 |
| 20260506140904 | 79 | 183 | 1.7 | 5.2 | 0.00 | 0.00 | 0.00 | 88 | 1009.6 |
| 20260506140404 | 79 | 187 | 1.7 | 5.2 | 0.00 | 0.00 | 0.00 | 89 | 1009.6 |
| 20260506135904 | 79 | 184 | 2.6 | 7.0 | 0.00 | 0.00 | 0.00 | 89 | 1009.7 |
| 20260506135405 | 79 | 177 | 2.6 | 7.0 | 0.00 | 0.00 | 0.00 | 89 | 1009.7 |
| 20260506134904 | 78 | 176 | 2.6 | 7.0 | 0.00 | 0.00 | 0.00 | 90 | 1009.7 |
| 20260506134404 | 78 | 167 | 1.7 | 4.3 | 0.00 | 0.00 | 0.00 | 90 | 1009.7 |
| 20260506133405 | 78 | 173 | 1.7 | 2.6 | 0.00 | 0.00 | 0.00 | 90 | 1009.8 |
| 20260506132904 | 78 | 170 | 0.9 | 5.2 | 0.00 | 0.00 | 0.00 | 90 | 1009.8 |
| 20260506132404 | 77 | 171 | 0.9 | 5.2 | 0.00 | 0.00 | 0.00 | 90 | 1009.8 |
| 20260506131904 | 77 | 180 | 0.0 | 1.7 | 0.00 | 0.00 | 0.00 | 90 | 1009.9 |
| 20260506131404 | 77 | 181 | 0.9 | 2.6 | 0.00 | 0.00 | 0.00 | 90 | 1009.8 |
| 20260506125904 | 77 | 181 | 0.9 | 6.1 | 0.00 | 0.00 | 0.00 | 90 | 1009.9 |
| 20260506125404 | 77 | 185 | 1.7 | 6.1 | 0.00 | 0.00 | 0.00 | 90 | 1009.8 |
| 20260506124904 | 77 | 163 | 2.6 | 6.1 | 0.00 | 0.00 | 0.00 | 90 | 1009.7 |
| 20260506124405 | 77 | 187 | 0.9 | 5.2 | 0.00 | 0.00 | 0.00 | 90 | 1009.7 |
| 20260506123904 | 77 | 190 | 0.9 | 5.2 | 0.00 | 0.00 | 0.00 | 90 | 1009.6 |
| 20260506123405 | 77 | 191 | 1.7 | 5.2 | 0.00 | 0.00 | 0.00 | 90 | 1009.5 |
| 20260506122904 | 76 | 178 | 1.7 | 5.2 | 0.00 | 0.00 | 0.00 | 90 | 1009.5 |
| 20260506122404 | 76 | 182 | 1.7 | 6.1 | 0.00 | 0.00 | 0.00 | 90 | 1009.5 |
| 20260506121904 | 76 | 184 | 2.6 | 6.1 | 0.00 | 0.00 | 0.00 | 90 | 1009.5 |
| 20260506120904 | 76 | 200 | 0.9 | 5.2 | 0.00 | 0.00 | 0.00 | 90 | 1009.4 |
| 20260506120405 | 76 | 183 | 2.6 | 6.1 | 0.00 | 0.00 | 0.00 | 90 | 1009.3 |
| 20260506115904 | 76 | 181 | 3.5 | 7.8 | 0.00 | 0.00 | 0.00 | 90 | 1009.2 |
| 20260506115404 | 76 | 184 | 2.6 | 7.8 | 0.00 | 0.00 | 0.00 | 90 | 1009.1 |
| 20260506114404 | 76 | 185 | 1.7 | 5.2 | 0.00 | 0.00 | 0.00 | 89 | 1009.0 |
| 20260506113904 | 76 | 177 | 1.7 | 5.2 | 0.00 | 0.00 | 0.00 | 89 | 1008.8 |
| 20260506113404 | 76 | 176 | 1.7 | 5.2 | 0.00 | 0.00 | 0.00 | 89 | 1008.8 |
| 20260506112904 | 76 | 187 | 2.6 | 6.1 | 0.00 | 0.00 | 0.00 | 89 | 1008.7 |
| 20260506112404 | 76 | 155 | 1.7 | 6.1 | 0.00 | 0.00 | 0.00 | 89 | 1008.7 |
| 20260506111904 | 76 | 163 | 1.7 | 5.2 | 0.00 | 0.00 | 0.00 | 89 | 1008.6 |
| 20260506111404 | 76 | 182 | 0.9 | 5.2 | 0.00 | 0.00 | 0.00 | 89 | 1008.5 |
| 20260506110903 | 76 | 184 | 2.6 | 5.2 | 0.00 | 0.00 | 0.00 | 89 | 1008.5 |
| 20260506105404 | 76 | 175 | 0.0 | 2.6 | 0.00 | 0.00 | 0.00 | 89 | 1008.6 |
| 20260506104905 | 76 | 174 | 0.9 | 7.0 | 0.00 | 0.00 | 0.00 | 89 | 1008.7 |
| 20260506104405 | 76 | 173 | 1.7 | 7.0 | 0.00 | 0.00 | 0.00 | 88 | 1008.7 |
| 20260506103404 | 76 | 156 | 0.9 | 1.7 | 0.00 | 0.00 | 0.00 | 88 | 1008.8 |
| 20260506102904 | 76 | 156 | 0.0 | 2.6 | 0.00 | 0.00 | 0.00 | 88 | 1008.7 |
| 20260506102404 | 76 | 155 | 0.0 | 2.6 | 0.00 | 0.00 | 0.00 | 88 | 1008.7 |
| 20260506101905 | 76 | 156 | 0.0 | 2.6 | 0.00 | 0.00 | 0.00 | 88 | 1008.7 |
| 20260506101404 | 76 | 156 | 1.7 | 6.1 | 0.00 | 0.00 | 0.00 | 88 | 1008.6 |
| 20260506100904 | 76 | 154 | 1.7 | 6.1 | 0.00 | 0.00 | 0.00 | 88 | 1008.4 |
| 20260506100404 | 76 | 173 | 1.7 | 4.3 | 0.00 | 0.00 | 0.00 | 88 | 1008.4 |
| 20260506095904 | 76 | 175 | 0.9 | 2.6 | 0.00 | 0.00 | 0.00 | 88 | 1008.5 |
| 20260506094905 | 76 | 172 | 0.9 | 1.7 | 0.00 | 0.00 | 0.00 | 87 | 1008.3 |
| 20260506094404 | 76 | 172 | 0.0 | 2.6 | 0.00 | 0.00 | 0.00 | 87 | 1008.4 |
| 20260506093903 | 76 | 172 | 0.0 | 2.6 | 0.00 | 0.00 | 0.00 | 87 | 1008.4 |
| 20260506092904 | 77 | 169 | 0.0 | 2.6 | 0.00 | 0.00 | 0.00 | 87 | 1008.5 |
| 20260506092404 | 77 | 169 | 0.9 | 4.3 | 0.00 | 0.00 | 0.00 | 87 | 1008.5 |
| 20260506091904 | 77 | 169 | 0.9 | 4.3 | 0.00 | 0.00 | 0.00 | 87 | 1008.5 |
| 20260506090404 | 77 | 176 | 0.0 | 4.3 | 0.00 | 0.00 | 0.00 | 87 | 1008.6 |
| 20260506085904 | 77 | 173 | 1.7 | 4.3 | 0.00 | 0.00 | 0.00 | 87 | 1008.5 |
| 20260506083905 | 77 | 178 | 2.6 | 5.2 | 0.00 | 0.00 | 0.00 | 87 | 1008.8 |
| 20260506082904 | 77 | 184 | 0.9 | 6.1 | 0.00 | 0.00 | 0.00 | 87 | 1008.9 |
| 20260506082404 | 77 | 173 | 1.7 | 7.0 | 0.00 | 0.00 | 0.00 | 87 | 1008.7 |
| 20260506081904 | 77 | 181 | 2.6 | 7.0 | 0.00 | 0.00 | 0.00 | 86 | 1008.7 |
| 20260506081404 | 77 | 147 | 2.6 | 6.1 | 0.00 | 0.00 | 0.00 | 86 | 1008.8 |
| 20260506080405 | 77 | 187 | 2.6 | 6.1 | 0.00 | 0.00 | 0.00 | 86 | 1008.9 |
| 20260506073404 | 77 | 186 | 2.6 | 7.0 | 0.00 | 0.00 | 0.00 | 86 | 1009.3 |
| 20260506072904 | 77 | 191 | 0.9 | 7.8 | 0.00 | 0.00 | 0.00 | 86 | 1009.4 |
| 20260506072404 | 77 | 173 | 3.5 | 7.8 | 0.00 | 0.00 | 0.00 | 86 | 1009.5 |
| 20260506071904 | 77 | 213 | 2.6 | 6.1 | 0.00 | 0.00 | 0.00 | 86 | 1009.5 |
| 20260506071403 | 77 | 210 | 1.7 | 7.8 | 0.00 | 0.00 | 0.00 | 86 | 1009.4 |
| 20260506070904 | 77 | 191 | 1.7 | 7.8 | 0.00 | 0.00 | 0.00 | 86 | 1009.5 |
| 20260506062404 | 77 | 191 | 2.6 | 7.0 | 0.00 | 0.00 | 0.00 | 86 | 1009.5 |
| 20260506061404 | 77 | 179 | 3.5 | 10.4 | 0.00 | 0.00 | 0.00 | 85 | 1009.4 |
| 20260506060904 | 77 | 166 | 5.2 | 10.4 | 0.00 | 0.00 | 0.00 | 85 | 1009.3 |
| 20260506060404 | 77 | 178 | 1.7 | 7.0 | 0.00 | 0.00 | 0.00 | 85 | 1009.4 |
| 20260506051404 | 78 | 8 | 0.9 | 2.6 | 0.00 | 0.00 | 0.00 | 85 | 1009.6 |
| 20260506044904 | 78 | 137 | 1.7 | 6.1 | 0.00 | 0.00 | 0.00 | 85 | 1009.7 |
| 20260506044403 | 78 | 176 | 3.5 | 8.7 | 0.00 | 0.00 | 0.00 | 85 | 1009.6 |
| 20260506043904 | 78 | 213 | 2.6 | 8.7 | 0.00 | 0.00 | 0.00 | 85 | 1009.5 |
| 20260506043405 | 78 | 174 | 4.3 | 7.0 | 0.00 | 0.00 | 0.00 | 85 | 1009.4 |
| 20260506042905 | 78 | 158 | 2.6 | 7.8 | 0.00 | 0.00 | 0.00 | 85 | 1009.4 |
| 20260506042403 | 78 | 179 | 2.6 | 10.4 | 0.00 | 0.00 | 0.00 | 84 | 1009.4 |
| 20260506041905 | 78 | 180 | 4.3 | 12.2 | 0.00 | 0.00 | 0.00 | 84 | 1009.5 |
| 20260506041404 | 77 | 165 | 3.5 | 12.2 | 0.00 | 0.00 | 0.00 | 84 | 1009.5 |
| 20260506040904 | 78 | 157 | 3.5 | 12.2 | 0.00 | 0.00 | 0.00 | 84 | 1009.4 |
| 20260506040403 | 78 | 175 | 5.2 | 11.3 | 0.00 | 0.00 | 0.00 | 84 | 1009.2 |
| 20260506035903 | 78 | 165 | 4.3 | 11.3 | 0.00 | 0.00 | 0.00 | 84 | 1009.2 |
| 20260506035404 | 78 | 150 | 1.7 | 10.4 | 0.00 | 0.00 | 0.00 | 84 | 1009.3 |
| 20260506034904 | 78 | 159 | 4.3 | 12.2 | 0.00 | 0.00 | 0.00 | 84 | 1009.4 |
| 20260506034404 | 78 | 168 | 5.2 | 12.2 | 0.00 | 0.00 | 0.00 | 84 | 1009.3 |
| 20260506033904 | 78 | 170 | 4.3 | 12.2 | 0.00 | 0.00 | 0.00 | 84 | 1009.3 |
| 20260506033405 | 78 | 175 | 5.2 | 13.9 | 0.00 | 0.00 | 0.00 | 84 | 1009.2 |
| 20260506032904 | 78 | 187 | 6.1 | 13.9 | 0.00 | 0.00 | 0.00 | 84 | 1009.1 |
| 20260506032404 | 78 | 157 | 4.3 | 13.9 | 0.00 | 0.00 | 0.00 | 84 | 1009.1 |
| 20260506031904 | 78 | 175 | 5.2 | 12.2 | 0.00 | 0.00 | 0.00 | 84 | 1009.2 |
| 20260506031405 | 78 | 213 | 4.3 | 7.0 | 0.00 | 0.00 | 0.00 | 84 | 1009.1 |
| 20260506030904 | 78 | 175 | 3.5 | 10.4 | 0.00 | 0.00 | 0.00 | 84 | 1009.1 |
| 20260506030404 | 78 | 187 | 3.5 | 10.4 | 0.00 | 0.00 | 0.00 | 84 | 1009.1 |
| 20260506025904 | 78 | 181 | 3.5 | 10.4 | 0.00 | 0.00 | 0.00 | 84 | 1009.0 |
| 20260506024904 | 78 | 163 | 3.5 | 7.8 | 0.00 | 0.00 | 0.00 | 84 | 1008.8 |
| 20260506024404 | 78 | 167 | 1.7 | 7.8 | 0.00 | 0.00 | 0.00 | 84 | 1008.9 |
| 20260506023905 | 78 | 167 | 2.6 | 7.8 | 0.00 | 0.00 | 0.00 | 84 | 1008.7 |
| 20260506023404 | 78 | 167 | 3.5 | 10.4 | 0.00 | 0.00 | 0.00 | 84 | 1008.6 |
| 20260506022904 | 78 | 173 | 2.6 | 10.4 | 0.00 | 0.00 | 0.00 | 84 | 1008.6 |
| 20260506022404 | 78 | 182 | 2.6 | 10.4 | 0.00 | 0.00 | 0.00 | 84 | 1008.6 |
| 20260506021904 | 78 | 153 | 0.9 | 10.4 | 0.00 | 0.00 | 0.00 | 83 | 1008.4 |
| 20260506020905 | 78 | 160 | 1.7 | 11.3 | 0.00 | 0.00 | 0.00 | 83 | 1008.3 |
| 20260506015905 | 78 | 167 | 2.6 | 10.4 | 0.00 | 0.00 | 0.00 | 82 | 1008.1 |
| 20260506015403 | 78 | 188 | 3.5 | 7.8 | 0.00 | 0.00 | 0.00 | 82 | 1008.1 |
| 20260506014404 | 78 | 188 | 2.6 | 10.4 | 0.00 | 0.00 | 0.00 | 82 | 1007.9 |
| 20260506013903 | 78 | 170 | 3.5 | 8.7 | 0.00 | 0.00 | 0.00 | 81 | 1007.9 |
| 20260506013404 | 78 | 170 | 3.5 | 10.4 | 0.00 | 0.00 | 0.00 | 81 | 1007.9 |
| 20260506012904 | 79 | 172 | 3.5 | 10.4 | 0.00 | 0.00 | 0.00 | 81 | 1007.8 |
| 20260506012405 | 79 | 190 | 3.5 | 10.4 | 0.00 | 0.00 | 0.00 | 81 | 1007.8 |
| 20260506011404 | 79 | 180 | 4.3 | 10.4 | 0.00 | 0.00 | 0.00 | 81 | 1007.7 |
| 20260506010904 | 79 | 201 | 1.7 | 10.4 | 0.00 | 0.00 | 0.00 | 81 | 1007.5 |
| 20260506010404 | 79 | 181 | 4.3 | 8.7 | 0.00 | 0.00 | 0.00 | 80 | 1007.5 |
| 20260506005905 | 79 | 183 | 4.3 | 10.4 | 0.00 | 0.00 | 0.00 | 80 | 1007.4 |
| 20260506005404 | 79 | 176 | 5.2 | 10.4 | 0.00 | 0.00 | 0.00 | 80 | 1007.4 |
| 20260506004904 | 79 | 158 | 4.3 | 10.4 | 0.00 | 0.00 | 0.00 | 80 | 1007.3 |
| 20260506004404 | 79 | 190 | 2.6 | 13.9 | 0.00 | 0.00 | 0.00 | 80 | 1007.3 |
| 20260506003904 | 80 | 175 | 6.1 | 13.9 | 0.00 | 0.00 | 0.00 | 79 | 1007.3 |
| 20260506003404 | 80 | 172 | 3.5 | 7.8 | 0.00 | 0.00 | 0.00 | 79 | 1007.3 |
| 20260506002905 | 80 | 190 | 2.6 | 7.0 | 0.00 | 0.00 | 0.00 | 79 | 1007.3 |
| 20260506002404 | 80 | 184 | 4.3 | 7.8 | 0.00 | 0.00 | 0.00 | 79 | 1007.3 |
| 20260506001903 | 80 | 154 | 2.6 | 10.4 | 0.00 | 0.00 | 0.00 | 79 | 1007.2 |
| 20260506001405 | 80 | 181 | 3.5 | 10.4 | 0.00 | 0.00 | 0.00 | 79 | 1007.1 |
| 20260506000904 | 80 | 193 | 5.2 | 11.3 | 0.00 | 0.00 | 0.00 | 78 | 1007.1 |
| 20260505235904 | 80 | 180 | 5.2 | 10.4 | 0.00 | 0.00 | 0.00 | 78 | 1007.3 |
| 20260505234905 | 80 | 182 | 3.5 | 14.8 | 0.00 | 0.00 | 0.00 | 78 | 1007.2 |
| 20260505234405 | 80 | 182 | 6.1 | 14.8 | 0.00 | 0.00 | 0.00 | 78 | 1007.2 |
| 20260505233404 | 81 | 161 | 2.6 | 10.4 | 0.00 | 0.00 | 0.00 | 77 | 1007.3 |
| 20260505232905 | 81 | 205 | 4.3 | 11.3 | 0.00 | 0.00 | 0.00 | 77 | 1007.4 |
| 20260505232404 | 81 | 178 | 4.3 | 15.6 | 0.00 | 0.00 | 0.00 | 77 | 1007.3 |
| 20260505231404 | 81 | 180 | 5.2 | 14.8 | 0.00 | 0.00 | 0.00 | 76 | 1007.2 |
| 20260505230404 | 81 | 196 | 5.2 | 13.9 | 0.00 | 0.00 | 0.00 | 76 | 1007.3 |
| 20260505225904 | 81 | 198 | 4.3 | 13.0 | 0.00 | 0.00 | 0.00 | 76 | 1007.4 |
| 20260505225404 | 81 | 200 | 5.2 | 11.3 | 0.00 | 0.00 | 0.00 | 76 | 1007.3 |
| 20260505224904 | 81 | 175 | 4.3 | 10.4 | 0.00 | 0.00 | 0.00 | 76 | 1007.3 |
| 20260505223905 | 81 | 173 | 7.0 | 12.2 | 0.00 | 0.00 | 0.00 | 76 | 1007.3 |
| 20260505223405 | 81 | 175 | 6.1 | 12.2 | 0.00 | 0.00 | 0.00 | 76 | 1007.3 |
| 20260505222904 | 81 | 153 | 5.2 | 13.9 | 0.00 | 0.00 | 0.00 | 77 | 1007.4 |
| 20260505221904 | 82 | 197 | 5.2 | 14.8 | 0.00 | 0.00 | 0.00 | 76 | 1007.4 |
| 20260505221405 | 82 | 191 | 6.1 | 14.8 | 0.00 | 0.00 | 0.00 | 76 | 1007.5 |
| 20260505220404 | 82 | 198 | 2.6 | 10.4 | 0.00 | 0.00 | 0.00 | 76 | 1007.4 |
| 20260505215405 | 82 | 207 | 4.3 | 12.2 | 0.00 | 0.00 | 0.00 | 76 | 1007.6 |
| 20260505214904 | 82 | 174 | 7.0 | 12.2 | 0.00 | 0.00 | 0.00 | 76 | 1007.7 |
| 20260505214404 | 82 | 200 | 5.2 | 10.4 | 0.00 | 0.00 | 0.00 | 76 | 1007.7 |
| 20260505213904 | 82 | 156 | 3.5 | 11.3 | 0.00 | 0.00 | 0.00 | 76 | 1007.8 |
| 20260505213404 | 82 | 188 | 6.1 | 13.0 | 0.00 | 0.00 | 0.00 | 76 | 1007.8 |
| 20260505211904 | 82 | 178 | 5.2 | 12.2 | 0.00 | 0.00 | 0.00 | 76 | 1007.9 |
| 20260505211404 | 82 | 186 | 2.6 | 17.4 | 0.00 | 0.00 | 0.00 | 76 | 1008.0 |
| 20260505210904 | 82 | 178 | 6.1 | 17.4 | 0.00 | 0.00 | 0.00 | 75 | 1008.1 |
| 20260505210404 | 83 | 195 | 6.1 | 13.0 | 0.00 | 0.00 | 0.00 | 75 | 1008.0 |
| 20260505205905 | 83 | 198 | 4.3 | 10.4 | 0.00 | 0.00 | 0.00 | 76 | 1008.0 |
| 20260505205404 | 83 | 205 | 4.3 | 10.4 | 0.00 | 0.00 | 0.00 | 75 | 1008.1 |
| 20260505204905 | 83 | 213 | 4.3 | 11.3 | 0.00 | 0.00 | 0.00 | 75 | 1008.3 |
| 20260505203904 | 83 | 185 | 4.3 | 13.0 | 0.00 | 0.00 | 0.00 | 76 | 1008.4 |
| 20260505203405 | 82 | 205 | 5.2 | 13.0 | 0.00 | 0.00 | 0.00 | 76 | 1008.5 |
| 20260505202904 | 82 | 187 | 5.2 | 13.0 | 0.00 | 0.00 | 0.00 | 76 | 1008.6 |
| 20260505202404 | 82 | 161 | 3.5 | 13.0 | 0.00 | 0.00 | 0.00 | 76 | 1008.6 |
| 20260505201405 | 83 | 193 | 4.3 | 13.0 | 0.00 | 0.00 | 0.00 | 76 | 1008.7 |